contact:dominique.lefevre@mio.osupytheas.fr, maurice.libes@osupytheas.fr, didier.mallarino@osupytheas.fr
Project:EMSO http://www.emso-fr.org/EMSO-France
Depth: 2436.0 m
Title:EMSO Ligure Ouest : Data MII capteur MICROCAT
DateTime_Computer,Latitude,Longitude,Temperature,Conductivity,Pressure,DateTime_Instrument
DateTime_Computer,Latitude,Longitude,degC,S m-1,dbar,DateTime_Instrument
2019-06-26T00:01:23Z,42.805,6.029,13.2953,4.59956,2469.937,2019-6-26T02:01:40Z
2019-06-26T00:04:26Z,42.805,6.029,13.2951,4.59954,2469.923,2019-6-26T02:04:43Z
2019-06-26T00:07:29Z,42.805,6.029,13.2953,4.59956,2469.96,2019-6-26T02:07:46Z
2019-06-26T00:10:32Z,42.805,6.029,13.2954,4.59956,2469.937,2019-6-26T02:10:49Z
2019-06-26T00:13:35Z,42.805,6.029,13.2953,4.59954,2469.947,2019-6-26T02:13:52Z
2019-06-26T00:16:38Z,42.805,6.029,13.2957,4.59954,2469.923,2019-6-26T02:16:55Z
2019-06-26T00:19:41Z,42.805,6.029,13.2955,4.59953,2469.96,2019-6-26T02:19:58Z
2019-06-26T00:22:44Z,42.805,6.029,13.2955,4.59954,2469.937,2019-6-26T02:23:01Z
2019-06-26T00:25:47Z,42.805,6.029,13.2954,4.59958,2469.937,2019-6-26T02:26:03Z
2019-06-26T00:28:50Z,42.805,6.029,13.2948,4.59959,2469.947,2019-6-26T02:29:06Z
2019-06-26T00:31:52Z,42.805,6.029,13.2953,4.59954,2469.97,2019-6-26T02:32:09Z
2019-06-26T00:34:55Z,42.805,6.029,13.2952,4.59952,2469.947,2019-6-26T02:35:12Z
2019-06-26T00:37:58Z,42.805,6.029,13.2958,4.59953,2469.947,2019-6-26T02:38:15Z
2019-06-26T00:41:01Z,42.805,6.029,13.2954,4.59953,2469.96,2019-6-26T02:41:18Z
2019-06-26T00:44:04Z,42.805,6.029,13.2955,4.59953,2469.984,2019-6-26T02:44:21Z
2019-06-26T00:47:07Z,42.805,6.029,13.2957,4.59957,2469.947,2019-6-26T02:47:24Z
2019-06-26T00:50:10Z,42.805,6.029,13.2953,4.59953,2469.984,2019-6-26T02:50:27Z
2019-06-26T00:53:13Z,42.805,6.029,13.2948,4.59956,2469.96,2019-6-26T02:53:30Z
2019-06-26T00:56:16Z,42.805,6.029,13.2953,4.59951,2469.96,2019-6-26T02:56:33Z
2019-06-26T00:59:19Z,42.805,6.029,13.2953,4.59952,2469.947,2019-6-26T02:59:36Z
2019-06-26T01:02:22Z,42.805,6.029,13.2950,4.59961,2469.984,2019-6-26T03:02:39Z
2019-06-26T01:05:25Z,42.805,6.029,13.2954,4.59953,2469.947,2019-6-26T03:05:42Z
2019-06-26T01:08:28Z,42.805,6.029,13.2949,4.59954,2469.97,2019-6-26T03:08:45Z
2019-06-26T01:11:31Z,42.805,6.029,13.2958,4.59954,2469.947,2019-6-26T03:11:48Z
2019-06-26T01:14:34Z,42.805,6.029,13.2954,4.59953,2469.97,2019-6-26T03:14:51Z
2019-06-26T01:17:37Z,42.805,6.029,13.2956,4.59952,2469.984,2019-6-26T03:17:54Z
2019-06-26T01:20:40Z,42.805,6.029,13.2954,4.59952,2469.984,2019-6-26T03:20:57Z
2019-06-26T01:23:43Z,42.805,6.029,13.2955,4.59953,2469.96,2019-6-26T03:24:00Z
2019-06-26T01:26:46Z,42.805,6.029,13.2955,4.59955,2469.96,2019-6-26T03:27:02Z
2019-06-26T01:29:49Z,42.805,6.029,13.2952,4.59961,2469.937,2019-6-26T03:30:05Z
2019-06-26T01:32:51Z,42.805,6.029,13.2952,4.59956,2469.947,2019-6-26T03:33:08Z
2019-06-26T01:35:54Z,42.805,6.029,13.2952,4.59956,2469.923,2019-6-26T03:36:11Z
2019-06-26T01:38:57Z,42.805,6.029,13.2957,4.59957,2469.937,2019-6-26T03:39:14Z
2019-06-26T01:42:00Z,42.805,6.029,13.2956,4.59955,2469.984,2019-6-26T03:42:17Z
2019-06-26T01:45:03Z,42.805,6.029,13.2955,4.59952,2469.96,2019-6-26T03:45:20Z
2019-06-26T01:48:06Z,42.805,6.029,13.2954,4.59952,2470.007,2019-6-26T03:48:23Z
2019-06-26T01:51:09Z,42.805,6.029,13.2956,4.59954,2469.937,2019-6-26T03:51:26Z
2019-06-26T01:54:12Z,42.805,6.029,13.2956,4.59954,2469.97,2019-6-26T03:54:29Z
2019-06-26T01:57:15Z,42.805,6.029,13.2953,4.59956,2469.984,2019-6-26T03:57:32Z
2019-06-26T02:00:18Z,42.805,6.029,13.2952,4.59955,2469.923,2019-6-26T04:00:35Z
2019-06-26T02:03:21Z,42.805,6.029,13.2955,4.59954,2469.97,2019-6-26T04:03:38Z
2019-06-26T02:06:24Z,42.805,6.029,13.2957,4.59954,2469.937,2019-6-26T04:06:41Z
2019-06-26T02:09:27Z,42.805,6.029,13.2952,4.59955,2469.984,2019-6-26T04:09:44Z
2019-06-26T02:12:30Z,42.805,6.029,13.2953,4.59956,2469.984,2019-6-26T04:12:47Z
2019-06-26T02:15:33Z,42.805,6.029,13.2957,4.59957,2469.923,2019-6-26T04:15:50Z
2019-06-26T02:18:36Z,42.805,6.029,13.2956,4.59958,2469.923,2019-6-26T04:18:53Z
2019-06-26T02:21:39Z,42.805,6.029,13.2956,4.59954,2469.984,2019-6-26T04:21:56Z
2019-06-26T02:24:42Z,42.805,6.029,13.2954,4.59953,2469.937,2019-6-26T04:24:58Z
2019-06-26T02:27:45Z,42.805,6.029,13.2952,4.59953,2469.937,2019-6-26T04:28:01Z
2019-06-26T02:30:47Z,42.805,6.029,13.2955,4.59954,2469.923,2019-6-26T04:31:04Z
2019-06-26T02:33:50Z,42.805,6.029,13.2953,4.59954,2469.933,2019-6-26T04:34:07Z
2019-06-26T02:36:53Z,42.805,6.029,13.2957,4.59954,2469.97,2019-6-26T04:37:10Z
2019-06-26T02:39:56Z,42.805,6.029,13.2954,4.59956,2469.96,2019-6-26T04:40:13Z
2019-06-26T02:42:59Z,42.805,6.029,13.2957,4.59955,2469.947,2019-6-26T04:43:16Z
2019-06-26T02:46:02Z,42.805,6.029,13.2952,4.59954,2469.937,2019-6-26T04:46:19Z
2019-06-26T02:49:05Z,42.805,6.029,13.2954,4.59953,2469.96,2019-6-26T04:49:22Z
2019-06-26T02:52:08Z,42.805,6.029,13.2956,4.59953,2469.947,2019-6-26T04:52:25Z
2019-06-26T02:55:11Z,42.805,6.029,13.2961,4.59956,2469.923,2019-6-26T04:55:28Z
2019-06-26T02:58:14Z,42.805,6.029,13.2954,4.59957,2469.947,2019-6-26T04:58:31Z
2019-06-26T03:01:17Z,42.805,6.029,13.2957,4.59956,2469.923,2019-6-26T05:01:34Z
2019-06-26T03:04:20Z,42.805,6.029,13.2953,4.59957,2469.923,2019-6-26T05:04:37Z
2019-06-26T03:07:23Z,42.805,6.029,13.2958,4.59957,2469.937,2019-6-26T05:07:40Z
2019-06-26T03:10:26Z,42.805,6.029,13.2955,4.59956,2469.937,2019-6-26T05:10:43Z
2019-06-26T03:13:29Z,42.805,6.029,13.2955,4.59952,2469.947,2019-6-26T05:13:46Z
2019-06-26T03:16:32Z,42.805,6.029,13.2950,4.59952,2469.97,2019-6-26T05:16:49Z
2019-06-26T03:19:35Z,42.805,6.029,13.2953,4.59962,2469.947,2019-6-26T05:19:52Z
2019-06-26T03:22:38Z,42.805,6.029,13.2953,4.59961,2469.937,2019-6-26T05:22:54Z
2019-06-26T03:25:41Z,42.805,6.029,13.2958,4.59966,2469.947,2019-6-26T05:25:57Z
2019-06-26T03:28:43Z,42.805,6.029,13.2959,4.59961,2469.9,2019-6-26T05:29:00Z
2019-06-26T03:31:46Z,42.805,6.029,13.2958,4.59953,2469.947,2019-6-26T05:32:03Z
2019-06-26T03:34:49Z,42.805,6.029,13.2953,4.59953,2469.937,2019-6-26T05:35:06Z
2019-06-26T03:37:52Z,42.805,6.029,13.2959,4.59955,2469.923,2019-6-26T05:38:09Z
2019-06-26T03:40:55Z,42.805,6.029,13.2958,4.59956,2469.923,2019-6-26T05:41:12Z
2019-06-26T03:43:58Z,42.805,6.029,13.2957,4.59954,2469.96,2019-6-26T05:44:15Z
2019-06-26T03:47:01Z,42.805,6.029,13.2958,4.59956,2469.9,2019-6-26T05:47:18Z
2019-06-26T03:50:04Z,42.805,6.029,13.2953,4.59957,2469.937,2019-6-26T05:50:21Z
2019-06-26T03:53:07Z,42.805,6.029,13.2956,4.59958,2469.947,2019-6-26T05:53:24Z
2019-06-26T03:56:10Z,42.805,6.029,13.2961,4.59955,2469.914,2019-6-26T05:56:27Z
2019-06-26T03:59:13Z,42.805,6.029,13.2958,4.59956,2469.923,2019-6-26T05:59:30Z
2019-06-26T04:02:16Z,42.805,6.029,13.2957,4.59962,2469.96,2019-6-26T06:02:33Z
2019-06-26T04:05:19Z,42.805,6.029,13.2960,4.59955,2469.923,2019-6-26T06:05:36Z
2019-06-26T04:08:22Z,42.805,6.029,13.2959,4.59958,2469.937,2019-6-26T06:08:39Z
2019-06-26T04:11:25Z,42.805,6.029,13.2957,4.59968,2469.937,2019-6-26T06:11:42Z
2019-06-26T04:14:28Z,42.805,6.029,13.2954,4.59971,2469.914,2019-6-26T06:14:45Z
2019-06-26T04:17:31Z,42.805,6.029,13.2953,4.59962,2469.914,2019-6-26T06:17:48Z
2019-06-26T04:20:34Z,42.805,6.029,13.2952,4.59958,2469.914,2019-6-26T06:20:51Z
2019-06-26T04:23:37Z,42.805,6.029,13.2955,4.59961,2469.914,2019-6-26T06:23:53Z
2019-06-26T04:26:39Z,42.805,6.029,13.2957,4.59957,2469.937,2019-6-26T06:26:56Z
2019-06-26T04:29:42Z,42.805,6.029,13.2953,4.59958,2469.923,2019-6-26T06:29:59Z
2019-06-26T04:32:45Z,42.805,6.029,13.2954,4.59956,2469.937,2019-6-26T06:33:02Z
2019-06-26T04:35:48Z,42.805,6.029,13.2953,4.59958,2469.9,2019-6-26T06:36:05Z
2019-06-26T04:38:51Z,42.805,6.029,13.2951,4.59956,2469.937,2019-6-26T06:39:08Z
2019-06-26T04:41:54Z,42.805,6.029,13.2958,4.59954,2469.9,2019-6-26T06:42:11Z
2019-06-26T04:44:57Z,42.805,6.029,13.2954,4.59957,2469.923,2019-6-26T06:45:14Z
2019-06-26T04:48:00Z,42.805,6.029,13.2959,4.59960,2469.914,2019-6-26T06:48:17Z
2019-06-26T04:51:03Z,42.805,6.029,13.2960,4.59953,2469.876,2019-6-26T06:51:20Z
2019-06-26T04:54:06Z,42.805,6.029,13.2958,4.59955,2469.96,2019-6-26T06:54:23Z
2019-06-26T04:57:09Z,42.805,6.029,13.2963,4.59955,2469.9,2019-6-26T06:57:26Z
2019-06-26T05:00:12Z,42.805,6.029,13.2964,4.59956,2469.937,2019-6-26T07:00:29Z
2019-06-26T05:03:15Z,42.805,6.029,13.2957,4.59956,2469.914,2019-6-26T07:03:32Z
2019-06-26T05:06:18Z,42.805,6.029,13.2966,4.59956,2469.914,2019-6-26T07:06:35Z
2019-06-26T05:09:21Z,42.805,6.029,13.2954,4.59964,2469.9,2019-6-26T07:09:38Z
2019-06-26T05:12:24Z,42.805,6.029,13.2956,4.59962,2469.9,2019-6-26T07:12:41Z
2019-06-26T05:15:27Z,42.805,6.029,13.2954,4.59958,2469.9,2019-6-26T07:15:44Z
2019-06-26T05:18:30Z,42.805,6.029,13.2956,4.59956,2469.9,2019-6-26T07:18:47Z
2019-06-26T05:21:33Z,42.805,6.029,13.2956,4.59956,2469.914,2019-6-26T07:21:49Z
2019-06-26T05:24:36Z,42.805,6.029,13.2955,4.59961,2469.937,2019-6-26T07:24:52Z
2019-06-26T05:27:38Z,42.805,6.029,13.2953,4.59973,2469.9,2019-6-26T07:27:55Z
2019-06-26T05:30:41Z,42.805,6.029,13.2950,4.59959,2469.9,2019-6-26T07:30:58Z
2019-06-26T05:33:44Z,42.805,6.029,13.2953,4.59954,2469.9,2019-6-26T07:34:01Z
2019-06-26T05:36:47Z,42.805,6.029,13.2957,4.59956,2469.9,2019-6-26T07:37:04Z
2019-06-26T05:39:50Z,42.805,6.029,13.2955,4.59963,2469.876,2019-6-26T07:40:07Z
2019-06-26T05:42:53Z,42.805,6.029,13.2957,4.59954,2469.9,2019-6-26T07:43:10Z
2019-06-26T05:45:56Z,42.805,6.029,13.2952,4.59960,2469.89,2019-6-26T07:46:13Z
2019-06-26T05:48:59Z,42.805,6.029,13.2956,4.59958,2469.923,2019-6-26T07:49:16Z
2019-06-26T05:52:02Z,42.805,6.029,13.2955,4.59956,2469.867,2019-6-26T07:52:19Z
2019-06-26T05:55:05Z,42.805,6.029,13.2957,4.59959,2469.914,2019-6-26T07:55:22Z
2019-06-26T05:58:08Z,42.805,6.029,13.2952,4.59963,2469.89,2019-6-26T07:58:25Z
2019-06-26T06:01:11Z,42.805,6.029,13.2958,4.59963,2469.876,2019-6-26T08:01:28Z
2019-06-26T06:04:14Z,42.805,6.029,13.2954,4.59967,2469.876,2019-6-26T08:04:31Z
2019-06-26T06:07:17Z,42.805,6.029,13.2956,4.59958,2469.867,2019-6-26T08:07:34Z
2019-06-26T06:10:20Z,42.805,6.029,13.2954,4.59956,2469.876,2019-6-26T08:10:37Z
2019-06-26T06:13:23Z,42.805,6.029,13.2951,4.59956,2469.9,2019-6-26T08:13:40Z
2019-06-26T06:16:26Z,42.805,6.029,13.2960,4.59954,2469.876,2019-6-26T08:16:43Z
2019-06-26T06:19:29Z,42.805,6.029,13.2954,4.59960,2469.876,2019-6-26T08:19:46Z
2019-06-26T06:22:32Z,42.805,6.029,13.2954,4.59962,2469.853,2019-6-26T08:22:48Z
2019-06-26T06:25:35Z,42.805,6.029,13.2953,4.59956,2469.853,2019-6-26T08:25:51Z
2019-06-26T06:28:37Z,42.805,6.029,13.2951,4.59955,2469.89,2019-6-26T08:28:54Z
2019-06-26T06:31:40Z,42.805,6.029,13.2955,4.59955,2469.876,2019-6-26T08:31:57Z
2019-06-26T06:34:43Z,42.805,6.029,13.2953,4.59957,2469.876,2019-6-26T08:35:00Z
2019-06-26T06:37:46Z,42.805,6.029,13.2957,4.59956,2469.867,2019-6-26T08:38:03Z
2019-06-26T06:40:49Z,42.805,6.029,13.2953,4.59954,2469.876,2019-6-26T08:41:06Z
2019-06-26T06:43:52Z,42.805,6.029,13.2955,4.59961,2469.844,2019-6-26T08:44:09Z
2019-06-26T06:46:55Z,42.805,6.029,13.2952,4.59958,2469.853,2019-6-26T08:47:12Z
2019-06-26T06:49:58Z,42.805,6.029,13.2957,4.59956,2469.867,2019-6-26T08:50:15Z
2019-06-26T06:53:01Z,42.805,6.029,13.2957,4.59956,2469.844,2019-6-26T08:53:18Z
2019-06-26T06:56:04Z,42.805,6.029,13.2953,4.59954,2469.83,2019-6-26T08:56:21Z
2019-06-26T06:59:07Z,42.805,6.029,13.2957,4.59955,2469.867,2019-6-26T08:59:24Z
2019-06-26T07:02:10Z,42.805,6.029,13.2953,4.59962,2469.853,2019-6-26T09:02:27Z
2019-06-26T07:05:13Z,42.805,6.029,13.2953,4.59957,2469.853,2019-6-26T09:05:30Z
2019-06-26T07:08:16Z,42.805,6.029,13.2958,4.59958,2469.853,2019-6-26T09:08:33Z
2019-06-26T07:11:19Z,42.805,6.029,13.2951,4.59962,2469.853,2019-6-26T09:11:36Z
2019-06-26T07:14:22Z,42.805,6.029,13.2953,4.59958,2469.867,2019-6-26T09:14:39Z
2019-06-26T07:17:25Z,42.805,6.029,13.2953,4.59958,2469.83,2019-6-26T09:17:42Z
2019-06-26T07:20:28Z,42.805,6.029,13.2953,4.59956,2469.867,2019-6-26T09:20:44Z
2019-06-26T07:23:31Z,42.805,6.029,13.2954,4.59958,2469.853,2019-6-26T09:23:47Z
2019-06-26T07:26:33Z,42.805,6.029,13.2954,4.59956,2469.83,2019-6-26T09:26:50Z
2019-06-26T07:29:36Z,42.805,6.029,13.2954,4.59954,2469.853,2019-6-26T09:29:53Z
2019-06-26T07:32:39Z,42.805,6.029,13.2953,4.59958,2469.858,2019-6-26T09:32:56Z
2019-06-26T07:35:42Z,42.805,6.029,13.2953,4.59959,2469.853,2019-6-26T09:35:59Z
2019-06-26T07:38:45Z,42.805,6.029,13.2953,4.59954,2469.853,2019-6-26T09:39:02Z
2019-06-26T07:41:48Z,42.805,6.029,13.2953,4.59956,2469.844,2019-6-26T09:42:05Z
2019-06-26T07:44:51Z,42.805,6.029,13.2949,4.59956,2469.853,2019-6-26T09:45:08Z
2019-06-26T07:47:54Z,42.805,6.029,13.2953,4.59954,2469.821,2019-6-26T09:48:11Z
2019-06-26T07:50:57Z,42.805,6.029,13.2953,4.59961,2469.83,2019-6-26T09:51:14Z
2019-06-26T07:54:00Z,42.805,6.029,13.2953,4.59961,2469.83,2019-6-26T09:54:17Z
2019-06-26T07:57:03Z,42.805,6.029,13.2953,4.59956,2469.83,2019-6-26T09:57:20Z
2019-06-26T08:00:06Z,42.805,6.029,13.2956,4.59958,2469.83,2019-6-26T10:00:23Z
2019-06-26T08:03:09Z,42.805,6.029,13.2957,4.59956,2469.867,2019-6-26T10:03:26Z
2019-06-26T08:06:12Z,42.805,6.029,13.2954,4.59959,2469.844,2019-6-26T10:06:29Z
2019-06-26T08:09:15Z,42.805,6.029,13.2957,4.59960,2469.867,2019-6-26T10:09:32Z
2019-06-26T08:12:18Z,42.805,6.029,13.2954,4.59958,2469.867,2019-6-26T10:12:35Z
2019-06-26T08:15:21Z,42.805,6.029,13.2953,4.59958,2469.821,2019-6-26T10:15:38Z
2019-06-26T08:18:24Z,42.805,6.029,13.2954,4.59960,2469.853,2019-6-26T10:18:41Z
2019-06-26T08:21:27Z,42.805,6.029,13.2956,4.59957,2469.806,2019-6-26T10:21:43Z
2019-06-26T08:24:30Z,42.805,6.029,13.2956,4.59956,2469.853,2019-6-26T10:24:46Z
2019-06-26T08:27:33Z,42.805,6.029,13.2956,4.59961,2469.867,2019-6-26T10:27:49Z
2019-06-26T08:30:35Z,42.805,6.029,13.2958,4.59954,2469.83,2019-6-26T10:30:52Z
2019-06-26T08:33:38Z,42.805,6.029,13.2954,4.59956,2469.806,2019-6-26T10:33:55Z
2019-06-26T08:36:41Z,42.805,6.029,13.2954,4.59956,2469.83,2019-6-26T10:36:58Z
2019-06-26T08:39:44Z,42.805,6.029,13.2956,4.59954,2469.83,2019-6-26T10:40:01Z
2019-06-26T08:42:47Z,42.805,6.029,13.2957,4.59955,2469.83,2019-6-26T10:43:04Z
2019-06-26T08:45:50Z,42.805,6.029,13.2951,4.59956,2469.83,2019-6-26T10:46:07Z
2019-06-26T08:48:53Z,42.805,6.029,13.2953,4.59956,2469.793,2019-6-26T10:49:10Z
2019-06-26T08:51:56Z,42.805,6.029,13.2953,4.59957,2469.83,2019-6-26T10:52:13Z
2019-06-26T08:54:59Z,42.805,6.029,13.2958,4.59957,2469.853,2019-6-26T10:55:16Z
2019-06-26T08:58:02Z,42.805,6.029,13.2956,4.59954,2469.844,2019-6-26T10:58:19Z
2019-06-26T09:01:05Z,42.805,6.029,13.2954,4.59961,2469.821,2019-6-26T11:01:22Z
2019-06-26T09:04:08Z,42.805,6.029,13.2954,4.59962,2469.806,2019-6-26T11:04:25Z
2019-06-26T09:07:11Z,42.805,6.029,13.2957,4.59956,2469.821,2019-6-26T11:07:28Z
2019-06-26T09:10:14Z,42.805,6.029,13.2953,4.59957,2469.844,2019-6-26T11:10:31Z
2019-06-26T09:13:17Z,42.805,6.029,13.2957,4.59957,2469.844,2019-6-26T11:13:34Z
2019-06-26T09:16:20Z,42.805,6.029,13.2954,4.59956,2469.821,2019-6-26T11:16:37Z
2019-06-26T09:19:23Z,42.805,6.029,13.2954,4.59958,2469.844,2019-6-26T11:19:40Z
2019-06-26T09:22:26Z,42.805,6.029,13.2952,4.59957,2469.83,2019-6-26T11:22:43Z
2019-06-26T09:25:29Z,42.805,6.029,13.2957,4.59960,2469.853,2019-6-26T11:25:46Z
2019-06-26T09:28:32Z,42.805,6.029,13.2953,4.59956,2469.844,2019-6-26T11:28:48Z
2019-06-26T09:31:35Z,42.805,6.029,13.2957,4.59958,2469.844,2019-6-26T11:31:51Z
2019-06-26T09:34:37Z,42.805,6.029,13.2955,4.59956,2469.83,2019-6-26T11:34:54Z
2019-06-26T09:37:40Z,42.805,6.029,13.2956,4.59970,2469.806,2019-6-26T11:37:57Z
2019-06-26T09:40:43Z,42.805,6.029,13.2958,4.59973,2469.844,2019-6-26T11:41:00Z
2019-06-26T09:43:46Z,42.805,6.029,13.2952,4.59969,2469.821,2019-6-26T11:44:03Z
2019-06-26T09:46:49Z,42.805,6.029,13.2954,4.59961,2469.867,2019-6-26T11:47:06Z
2019-06-26T09:49:52Z,42.805,6.029,13.2952,4.59955,2469.83,2019-6-26T11:50:09Z
2019-06-26T09:52:55Z,42.805,6.029,13.2953,4.59956,2469.844,2019-6-26T11:53:12Z
2019-06-26T09:55:58Z,42.805,6.029,13.2958,4.59955,2469.853,2019-6-26T11:56:15Z
2019-06-26T09:59:01Z,42.805,6.029,13.2952,4.59955,2469.83,2019-6-26T11:59:18Z
2019-06-26T10:02:04Z,42.805,6.029,13.2957,4.59956,2469.806,2019-6-26T12:02:21Z
2019-06-26T10:05:07Z,42.805,6.029,13.2956,4.59956,2469.867,2019-6-26T12:05:24Z
2019-06-26T10:08:10Z,42.805,6.029,13.2955,4.59957,2469.867,2019-6-26T12:08:27Z
2019-06-26T10:11:13Z,42.805,6.029,13.2954,4.59954,2469.867,2019-6-26T12:11:30Z
2019-06-26T10:14:16Z,42.805,6.029,13.2954,4.59955,2469.867,2019-6-26T12:14:33Z
2019-06-26T10:17:19Z,42.805,6.029,13.2957,4.59955,2469.821,2019-6-26T12:17:36Z
2019-06-26T10:20:22Z,42.805,6.029,13.2956,4.59953,2469.853,2019-6-26T12:20:39Z
2019-06-26T10:23:25Z,42.805,6.029,13.2953,4.59954,2469.867,2019-6-26T12:23:42Z
2019-06-26T10:26:28Z,42.805,6.029,13.2954,4.59956,2469.876,2019-6-26T12:26:45Z
2019-06-26T10:29:31Z,42.805,6.029,13.2956,4.59961,2469.853,2019-6-26T12:29:48Z
2019-06-26T10:32:34Z,42.805,6.029,13.2953,4.59956,2469.867,2019-6-26T12:32:50Z
2019-06-26T10:35:37Z,42.805,6.029,13.2955,4.59960,2469.867,2019-6-26T12:35:53Z
2019-06-26T10:38:39Z,42.805,6.029,13.2956,4.59960,2469.867,2019-6-26T12:38:56Z
2019-06-26T10:41:42Z,42.805,6.029,13.2952,4.59963,2469.853,2019-6-26T12:41:59Z
2019-06-26T10:44:45Z,42.805,6.029,13.2955,4.59958,2469.844,2019-6-26T12:45:02Z
2019-06-26T10:47:48Z,42.805,6.029,13.2962,4.59957,2469.853,2019-6-26T12:48:05Z
2019-06-26T10:50:51Z,42.805,6.029,13.2958,4.59954,2469.844,2019-6-26T12:51:08Z
2019-06-26T10:53:54Z,42.805,6.029,13.2953,4.59960,2469.853,2019-6-26T12:54:11Z
2019-06-26T10:56:57Z,42.805,6.029,13.2956,4.59958,2469.83,2019-6-26T12:57:14Z
2019-06-26T11:00:00Z,42.805,6.029,13.2964,4.59954,2469.867,2019-6-26T13:00:17Z
2019-06-26T11:03:03Z,42.805,6.029,13.2962,4.59956,2469.844,2019-6-26T13:03:20Z
2019-06-26T11:06:06Z,42.805,6.029,13.2955,4.59957,2469.89,2019-6-26T13:06:23Z
2019-06-26T11:09:09Z,42.805,6.029,13.2955,4.59969,2469.876,2019-6-26T13:09:26Z
2019-06-26T11:12:12Z,42.805,6.029,13.2957,4.59956,2469.821,2019-6-26T13:12:29Z
2019-06-26T11:15:15Z,42.805,6.029,13.2955,4.59961,2469.867,2019-6-26T13:15:32Z
2019-06-26T11:18:18Z,42.805,6.029,13.2961,4.59958,2469.876,2019-6-26T13:18:35Z
2019-06-26T11:21:21Z,42.805,6.029,13.2955,4.59964,2469.867,2019-6-26T13:21:38Z
2019-06-26T11:24:24Z,42.805,6.029,13.2955,4.59960,2469.867,2019-6-26T13:24:41Z
2019-06-26T11:27:27Z,42.805,6.029,13.2967,4.59961,2469.876,2019-6-26T13:27:44Z
2019-06-26T11:30:30Z,42.805,6.029,13.2958,4.59964,2469.867,2019-6-26T13:30:47Z
2019-06-26T11:33:33Z,42.805,6.029,13.2958,4.59966,2469.853,2019-6-26T13:33:50Z
2019-06-26T11:36:36Z,42.805,6.029,13.2960,4.59959,2469.83,2019-6-26T13:36:53Z
2019-06-26T11:39:39Z,42.805,6.029,13.2953,4.59961,2469.867,2019-6-26T13:39:56Z
2019-06-26T11:42:42Z,42.805,6.029,13.2953,4.59961,2469.876,2019-6-26T13:42:58Z
2019-06-26T11:45:44Z,42.805,6.029,13.2957,4.59958,2469.876,2019-6-26T13:46:01Z
2019-06-26T11:48:47Z,42.805,6.029,13.2961,4.59958,2469.876,2019-6-26T13:49:04Z
2019-06-26T11:51:50Z,42.805,6.029,13.2961,4.59972,2469.867,2019-6-26T13:52:07Z
2019-06-26T11:54:53Z,42.805,6.029,13.2958,4.59970,2469.89,2019-6-26T13:55:10Z
2019-06-26T11:57:56Z,42.805,6.029,13.2957,4.59969,2469.867,2019-6-26T13:58:13Z
2019-06-26T12:00:59Z,42.805,6.029,13.2956,4.59964,2469.876,2019-6-26T14:01:16Z
2019-06-26T12:04:02Z,42.805,6.029,13.2957,4.59958,2469.867,2019-6-26T14:04:19Z
2019-06-26T12:07:05Z,42.805,6.029,13.2953,4.59959,2469.876,2019-6-26T14:07:22Z
2019-06-26T12:10:08Z,42.805,6.029,13.2960,4.59960,2469.853,2019-6-26T14:10:25Z
2019-06-26T12:13:11Z,42.805,6.029,13.2957,4.59958,2469.89,2019-6-26T14:13:28Z
2019-06-26T12:16:14Z,42.805,6.029,13.2962,4.59958,2469.867,2019-6-26T14:16:31Z
2019-06-26T12:19:17Z,42.805,6.029,13.2957,4.59971,2469.876,2019-6-26T14:19:34Z
2019-06-26T12:22:20Z,42.805,6.029,13.2951,4.59971,2469.89,2019-6-26T14:22:37Z
2019-06-26T12:25:23Z,42.805,6.029,13.2955,4.59966,2469.867,2019-6-26T14:25:40Z
2019-06-26T12:28:26Z,42.805,6.029,13.2954,4.59976,2469.867,2019-6-26T14:28:43Z
2019-06-26T12:31:29Z,42.805,6.029,13.2954,4.59969,2469.853,2019-6-26T14:31:46Z
2019-06-26T12:34:32Z,42.805,6.029,13.2961,4.59970,2469.867,2019-6-26T14:34:49Z
2019-06-26T12:37:35Z,42.805,6.029,13.2961,4.59973,2469.876,2019-6-26T14:37:52Z
2019-06-26T12:40:38Z,42.805,6.029,13.2958,4.59982,2469.89,2019-6-26T14:40:55Z
2019-06-26T12:43:41Z,42.805,6.029,13.2956,4.59976,2469.876,2019-6-26T14:43:58Z
2019-06-26T12:46:44Z,42.805,6.029,13.2958,4.59988,2469.914,2019-6-26T14:47:00Z
2019-06-26T12:49:46Z,42.805,6.029,13.2958,4.60017,2469.876,2019-6-26T14:50:03Z
2019-06-26T12:52:49Z,42.805,6.029,13.2954,4.59992,2469.876,2019-6-26T14:53:06Z
2019-06-26T12:55:52Z,42.805,6.029,13.2956,4.60003,2469.876,2019-6-26T14:56:09Z
2019-06-26T12:58:55Z,42.805,6.029,13.2953,4.59994,2469.867,2019-6-26T14:59:12Z
2019-06-26T13:01:58Z,42.805,6.029,13.2956,4.60011,2469.89,2019-6-26T15:02:15Z
2019-06-26T13:05:01Z,42.805,6.029,13.2958,4.60009,2469.83,2019-6-26T15:05:18Z
2019-06-26T13:08:04Z,42.805,6.029,13.2958,4.59998,2469.83,2019-6-26T15:08:21Z
2019-06-26T13:11:07Z,42.805,6.029,13.2958,4.60030,2469.914,2019-6-26T15:11:24Z
2019-06-26T13:14:10Z,42.805,6.029,13.2963,4.60035,2469.89,2019-6-26T15:14:27Z
2019-06-26T13:17:13Z,42.805,6.029,13.2961,4.60039,2469.853,2019-6-26T15:17:30Z
2019-06-26T13:20:16Z,42.805,6.029,13.2958,4.60056,2469.89,2019-6-26T15:20:33Z
2019-06-26T13:23:19Z,42.805,6.029,13.2955,4.60052,2469.876,2019-6-26T15:23:36Z
2019-06-26T13:26:22Z,42.805,6.029,13.2963,4.60056,2469.876,2019-6-26T15:26:39Z
2019-06-26T13:29:25Z,42.805,6.029,13.2956,4.60097,2469.867,2019-6-26T15:29:42Z
2019-06-26T13:32:28Z,42.805,6.029,13.2964,4.60096,2469.876,2019-6-26T15:32:45Z
2019-06-26T13:35:31Z,42.805,6.029,13.2974,4.60020,2469.89,2019-6-26T15:35:48Z
2019-06-26T13:38:34Z,42.805,6.029,13.2979,4.60026,2469.853,2019-6-26T15:38:51Z
2019-06-26T13:41:37Z,42.805,6.029,13.2990,4.60027,2469.89,2019-6-26T15:41:54Z
2019-06-26T13:44:40Z,42.805,6.029,13.2997,4.60042,2469.914,2019-6-26T15:44:57Z
2019-06-26T13:47:43Z,42.805,6.029,13.3017,4.60027,2469.89,2019-6-26T15:48:00Z
2019-06-26T13:50:46Z,42.805,6.029,13.3020,4.60018,2469.9,2019-6-26T15:51:02Z
2019-06-26T13:53:48Z,42.805,6.029,13.3019,4.59997,2469.876,2019-6-26T15:54:05Z
2019-06-26T13:56:51Z,42.805,6.029,13.3030,4.60001,2469.876,2019-6-26T15:57:08Z
2019-06-26T13:59:54Z,42.805,6.029,13.3033,4.60016,2469.853,2019-6-26T16:00:11Z
2019-06-26T14:02:57Z,42.805,6.029,13.3008,4.59992,2469.853,2019-6-26T16:03:14Z
2019-06-26T14:06:00Z,42.805,6.029,13.3011,4.60008,2469.89,2019-6-26T16:06:17Z
2019-06-26T14:09:03Z,42.805,6.029,13.3013,4.60055,2469.867,2019-6-26T16:09:20Z
2019-06-26T14:12:06Z,42.805,6.029,13.3008,4.60033,2469.89,2019-6-26T16:12:23Z
2019-06-26T14:15:09Z,42.805,6.029,13.3014,4.60003,2469.867,2019-6-26T16:15:26Z
2019-06-26T14:18:12Z,42.805,6.029,13.2990,4.59986,2469.914,2019-6-26T16:18:29Z
2019-06-26T14:21:15Z,42.805,6.029,13.2976,4.59987,2469.881,2019-6-26T16:21:32Z
2019-06-26T14:24:18Z,42.805,6.029,13.2982,4.59991,2469.914,2019-6-26T16:24:35Z
2019-06-26T14:27:21Z,42.805,6.029,13.2973,4.60006,2469.89,2019-6-26T16:27:38Z
2019-06-26T14:30:24Z,42.805,6.029,13.2977,4.59996,2469.89,2019-6-26T16:30:41Z
2019-06-26T14:33:27Z,42.805,6.029,13.2990,4.59984,2469.867,2019-6-26T16:33:44Z
2019-06-26T14:36:30Z,42.805,6.029,13.2970,4.60000,2469.89,2019-6-26T16:36:47Z
2019-06-26T14:39:33Z,42.805,6.029,13.2971,4.60002,2469.876,2019-6-26T16:39:50Z
2019-06-26T14:42:36Z,42.805,6.029,13.2985,4.59975,2469.853,2019-6-26T16:42:53Z
2019-06-26T14:45:39Z,42.805,6.029,13.2971,4.59994,2469.853,2019-6-26T16:45:56Z
2019-06-26T14:48:42Z,42.805,6.029,13.2973,4.60003,2469.867,2019-6-26T16:48:59Z
2019-06-26T14:51:45Z,42.805,6.029,13.2982,4.60007,2469.876,2019-6-26T16:52:02Z
2019-06-26T14:54:48Z,42.805,6.029,13.2991,4.60001,2469.89,2019-6-26T16:55:05Z
2019-06-26T14:57:51Z,42.805,6.029,13.2987,4.60004,2469.89,2019-6-26T16:58:07Z
2019-06-26T15:00:53Z,42.805,6.029,13.2991,4.59996,2469.867,2019-6-26T17:01:10Z
2019-06-26T15:03:56Z,42.805,6.029,13.2995,4.60004,2469.914,2019-6-26T17:04:13Z
2019-06-26T15:06:59Z,42.805,6.029,13.2996,4.60017,2469.9,2019-6-26T17:07:16Z
2019-06-26T15:10:02Z,42.805,6.029,13.3030,4.59996,2469.867,2019-6-26T17:10:19Z
2019-06-26T15:13:05Z,42.805,6.029,13.3038,4.59999,2469.867,2019-6-26T17:13:22Z